| time (UTC) | temp C | wind direction | speed KPH | gust KPH | rain 1hr cm | rain 24hr cm | rain mn cm | humidity % | barometer mb |
| 20260507115017 | 6 | 0.0 | 0.0 | 0.00 | 0.05 | 0.00 | 95 | ||
| 20260507114017 | 5 | 134 | 0.0 | 1.6 | 0.00 | 0.05 | 0.00 | 98 | |
| 20260507113037 | 5 | 166 | 0.0 | 1.6 | 0.00 | 0.05 | 0.00 | 97 | |
| 20260507112057 | 4 | 134 | 0.0 | 0.0 | 0.00 | 0.05 | 0.00 | 97 | |
| 20260507111016 | 4 | 152 | 0.0 | 1.6 | 0.00 | 0.05 | 0.00 | 97 | |
| 20260507110017 | 4 | 134 | 0.0 | 1.6 | 0.00 | 0.05 | 0.00 | 96 | |
| 20260507105017 | 4 | 170 | 0.0 | 1.6 | 0.00 | 0.05 | 0.00 | 96 | |
| 20260507104017 | 4 | 158 | 0.0 | 1.6 | 0.00 | 0.05 | 0.00 | 96 | |
| 20260507103017 | 4 | 135 | 0.0 | 1.6 | 0.00 | 0.05 | 0.00 | 96 | |
| 20260507102036 | 5 | 166 | 0.0 | 0.0 | 0.00 | 0.05 | 0.00 | 96 | |
| 20260507101017 | 5 | 310 | 0.0 | 0.0 | 0.00 | 0.05 | 0.00 | 97 | |
| 20260507100017 | 5 | 17 | 0.0 | 3.2 | 0.00 | 0.05 | 0.00 | 97 | |
| 20260507095016 | 5 | 146 | 0.0 | 1.6 | 0.00 | 0.05 | 0.00 | 97 | |
| 20260507094017 | 5 | 134 | 0.0 | 0.0 | 0.00 | 0.05 | 0.00 | 96 | |
| 20260507093036 | 5 | 159 | 0.0 | 1.6 | 0.00 | 0.05 | 0.00 | 96 | |
| 20260507092036 | 5 | 134 | 0.0 | 0.0 | 0.00 | 0.05 | 0.00 | 96 | |
| 20260507091017 | 5 | 134 | 0.0 | 1.6 | 0.00 | 0.05 | 0.00 | 96 | |
| 20260507090016 | 5 | 139 | 0.0 | 1.6 | 0.00 | 0.05 | 0.00 | 96 | |
| 20260507085017 | 5 | 162 | 0.0 | 1.6 | 0.00 | 0.05 | 0.00 | 96 | |
| 20260507084017 | 5 | 0.0 | 0.0 | 0.00 | 0.05 | 0.00 | 97 | ||
| 20260507083017 | 5 | 117 | 0.0 | 1.6 | 0.00 | 0.05 | 0.00 | 97 | |
| 20260507082017 | 5 | 134 | 0.0 | 0.0 | 0.00 | 0.05 | 0.00 | 96 | |
| 20260507081017 | 5 | 134 | 0.0 | 0.0 | 0.00 | 0.05 | 0.00 | 96 | |
| 20260507080016 | 6 | 0.0 | 0.0 | 0.00 | 0.05 | 0.00 | 96 | ||
| 20260507075017 | 6 | 134 | 0.0 | 0.0 | 0.00 | 0.05 | 0.00 | 96 | |
| 20260507074017 | 6 | 134 | 0.0 | 0.0 | 0.00 | 0.08 | 0.00 | 96 | |
| 20260507073017 | 6 | 44 | 0.0 | 0.0 | 0.00 | 0.10 | 0.00 | 97 | |
| 20260507072037 | 6 | 351 | 0.0 | 0.0 | 0.00 | 0.10 | 0.00 | 96 | |
| 20260507071036 | 6 | 179 | 0.0 | 1.6 | 0.00 | 0.13 | 0.00 | 97 | |
| 20260507070017 | 6 | 134 | 0.0 | 1.6 | 0.00 | 0.18 | 0.00 | 96 | |
| 20260507065016 | 6 | 0.0 | 0.0 | 0.00 | 0.25 | 0.00 | 96 | ||
| 20260507064016 | 6 | 0.0 | 0.0 | 0.00 | 0.25 | 0.00 | 96 | ||
| 20260507063017 | 6 | 0.0 | 0.0 | 0.00 | 0.25 | 0.00 | 96 | ||
| 20260507062018 | 6 | 179 | 0.0 | 0.0 | 0.00 | 0.28 | 0.00 | 95 | |
| 20260507061037 | 6 | 0.0 | 0.0 | 0.00 | 0.28 | 0.00 | 95 | ||
| 20260507060017 | 6 | 0.0 | 0.0 | 0.00 | 0.30 | 0.00 | 95 | ||
| 20260507055017 | 7 | 0.0 | 0.0 | 0.00 | 0.38 | 0.00 | 95 | ||
| 20260507054017 | 7 | 88 | 0.0 | 0.0 | 0.00 | 0.43 | 0.00 | 95 | |
| 20260507053017 | 7 | 0.0 | 0.0 | 0.00 | 0.46 | 0.00 | 96 | ||
| 20260507052017 | 7 | 0.0 | 0.0 | 0.00 | 0.53 | 0.00 | 95 | ||
| 20260507051017 | 7 | 0.0 | 0.0 | 0.00 | 0.58 | 0.00 | 96 | ||
| 20260507050037 | 7 | 0.0 | 0.0 | 0.00 | 0.69 | 0.00 | 97 | ||
| 20260507045037 | 7 | 134 | 0.0 | 0.0 | 0.00 | 0.84 | 0.00 | 98 | |
| 20260507044017 | 7 | 134 | 0.0 | 1.6 | 0.00 | 1.04 | 0.00 | 97 | |
| 20260507043017 | 8 | 0.0 | 0.0 | 0.00 | 1.09 | 0.00 | 97 | ||
| 20260507042017 | 8 | 0.0 | 0.0 | 0.00 | 1.19 | 0.00 | 97 | ||
| 20260507041017 | 8 | 0.0 | 0.0 | 0.00 | 1.24 | 0.00 | 96 | ||
| 20260507040017 | 8 | 134 | 0.0 | 0.0 | 0.00 | 1.32 | 0.00 | 97 | |
| 20260507035017 | 8 | 0.0 | 0.0 | 0.00 | 1.40 | 0.00 | 97 | ||
| 20260507034017 | 8 | 0.0 | 0.0 | 0.00 | 1.42 | 0.00 | 95 | ||
| 20260507033057 | 8 | 0.0 | 0.0 | 0.00 | 1.47 | 0.00 | 95 | ||
| 20260507032017 | 8 | 0.0 | 0.0 | 0.00 | 1.47 | 0.00 | 94 | ||
| 20260507031016 | 9 | 0.0 | 0.0 | 0.00 | 1.50 | 0.00 | 95 | ||
| 20260507030017 | 9 | 0.0 | 0.0 | 0.00 | 1.57 | 0.00 | 95 | ||
| 20260507025017 | 9 | 0.0 | 0.0 | 0.00 | 1.57 | 0.00 | 94 | ||
| 20260507024016 | 10 | 0.0 | 0.0 | 0.00 | 1.60 | 0.00 | 93 | ||
| 20260507023017 | 10 | 0.0 | 0.0 | 0.00 | 1.65 | 0.00 | 93 | ||
| 20260507022057 | 10 | 0.0 | 0.0 | 0.00 | 1.73 | 0.00 | 94 | ||
| 20260507021016 | 11 | 134 | 0.0 | 0.0 | 0.00 | 1.78 | 0.00 | 95 | |
| 20260507020018 | 11 | 134 | 0.0 | 0.0 | 0.00 | 1.80 | 0.00 | 96 | |
| 20260507015016 | 11 | 0.0 | 0.0 | 0.00 | 1.85 | 0.00 | 96 | ||
| 20260507014017 | 11 | 134 | 0.0 | 0.0 | 0.00 | 1.96 | 0.00 | 96 | |
| 20260507013017 | 11 | 134 | 0.0 | 0.0 | 0.00 | 1.98 | 0.00 | 93 | |
| 20260507012016 | 12 | 0.0 | 0.0 | 0.00 | 1.98 | 0.00 | 92 | ||
| 20260507011017 | 12 | 88 | 0.0 | 0.0 | 0.00 | 2.01 | 0.00 | 91 | |
| 20260507010017 | 13 | 0.0 | 0.0 | 0.00 | 2.03 | 0.00 | 92 | ||
| 20260507005017 | 14 | 281 | 1.6 | 3.2 | 0.00 | 2.13 | 0.00 | 92 | |
| 20260507004017 | 15 | 269 | 1.6 | 3.2 | 0.00 | 2.24 | 0.00 | 92 | |
| 20260507003017 | 15 | 288 | 1.6 | 4.8 | 0.00 | 2.26 | 0.00 | 92 | |
| 20260507002017 | 16 | 269 | 3.2 | 6.4 | 0.00 | 2.26 | 0.00 | 92 | |
| 20260507001017 | 16 | 307 | 4.8 | 8.0 | 0.00 | 2.26 | 0.00 | 92 | |
| 20260507000016 | 16 | 279 | 3.2 | 4.8 | 0.00 | 2.31 | 0.00 | 91 | |
| 20260506235018 | 17 | 279 | 3.2 | 6.4 | 0.00 | 2.34 | 2.31 | 89 | |
| 20260506234017 | 17 | 267 | 3.2 | 6.4 | 0.00 | 2.36 | 2.31 | 89 | |
| 20260506233017 | 18 | 291 | 1.6 | 4.8 | 0.00 | 2.36 | 2.31 | 87 | |
| 20260506232017 | 18 | 349 | 3.2 | 8.0 | 0.00 | 2.41 | 2.31 | 91 | |
| 20260506231016 | 17 | 353 | 3.2 | 6.4 | 0.00 | 2.44 | 2.31 | 92 | |
| 20260506230017 | 18 | 331 | 3.2 | 8.0 | 0.00 | 2.44 | 2.31 | 92 | |
| 20260506225017 | 18 | 302 | 4.8 | 9.7 | 0.00 | 2.49 | 2.31 | 94 | |
| 20260506224016 | 17 | 317 | 3.2 | 8.0 | 0.00 | 2.49 | 2.31 | 93 | |
| 20260506223017 | 17 | 345 | 3.2 | 8.0 | 0.00 | 2.49 | 2.31 | 92 | |
| 20260506222017 | 18 | 291 | 3.2 | 6.4 | 0.00 | 2.49 | 2.31 | 92 | |
| 20260506221017 | 18 | 320 | 3.2 | 6.4 | 0.00 | 2.49 | 2.31 | 91 | |
| 20260506220017 | 18 | 36 | 1.6 | 4.8 | 0.00 | 2.51 | 2.31 | 91 | |
| 20260506215016 | 19 | 278 | 4.8 | 9.7 | 0.00 | 2.54 | 2.31 | 91 | |
| 20260506214018 | 19 | 280 | 1.6 | 4.8 | 0.00 | 2.54 | 2.31 | 91 | |
| 20260506213036 | 19 | 276 | 1.6 | 8.0 | 0.00 | 2.57 | 2.31 | 91 | |
| 20260506212017 | 19 | 264 | 4.8 | 6.4 | 0.00 | 2.59 | 2.31 | 92 | |
| 20260506211017 | 19 | 289 | 3.2 | 8.0 | 0.00 | 2.59 | 2.31 | 93 | |
| 20260506210016 | 18 | 295 | 4.8 | 9.7 | 0.00 | 2.62 | 2.31 | 90 | |
| 20260506205037 | 18 | 283 | 3.2 | 9.7 | 0.03 | 2.64 | 2.31 | 90 | |
| 20260506204017 | 18 | 308 | 4.8 | 8.0 | 0.03 | 2.64 | 2.31 | 89 | |
| 20260506203016 | 19 | 312 | 3.2 | 8.0 | 0.03 | 2.64 | 2.31 | 89 | |
| 20260506202017 | 19 | 337 | 3.2 | 4.8 | 0.03 | 2.67 | 2.31 | 89 | |
| 20260506201037 | 19 | 352 | 3.2 | 6.4 | 0.03 | 2.67 | 2.31 | 87 | |
| 20260506200057 | 20 | 287 | 4.8 | 11.3 | 0.03 | 2.69 | 2.31 | 86 | |
| 20260506195037 | 21 | 297 | 4.8 | 9.7 | 0.00 | 2.69 | 2.29 | 85 | |
| 20260506194017 | 22 | 294 | 6.4 | 9.7 | 0.00 | 2.77 | 2.29 | 85 | |
| 20260506193018 | 22 | 310 | 3.2 | 8.0 | 0.00 | 2.82 | 2.29 | 89 | |
| 20260506192037 | 22 | 289 | 4.8 | 9.7 | 0.00 | 2.92 | 2.29 | 89 | |
| 20260506191017 | 21 | 325 | 3.2 | 6.4 | 0.00 | 2.97 | 2.29 | 93 | |
| 20260506190037 | 20 | 307 | 3.2 | 8.0 | 0.00 | 2.97 | 2.29 | 91 | |
| 20260506185016 | 21 | 300 | 4.8 | 8.0 | 0.00 | 2.97 | 2.29 | 92 | |
| 20260506184037 | 21 | 339 | 3.2 | 6.4 | 0.00 | 2.97 | 2.29 | 91 | |
| 20260506183017 | 22 | 351 | 3.2 | 8.0 | 0.00 | 2.97 | 2.29 | 89 | |
| 20260506182016 | 22 | 330 | 3.2 | 8.0 | 0.00 | 2.97 | 2.29 | 91 | |
| 20260506181017 | 23 | 339 | 3.2 | 8.0 | 0.00 | 2.97 | 2.29 | 90 | |
| 20260506180017 | 23 | 283 | 3.2 | 6.4 | 0.00 | 2.97 | 2.29 | 93 | |
| 20260506175017 | 23 | 287 | 4.8 | 11.3 | 0.00 | 2.97 | 2.29 | 93 | |
| 20260506174017 | 22 | 19 | 3.2 | 6.4 | 0.00 | 2.97 | 2.29 | 94 | |
| 20260506173016 | 22 | 338 | 3.2 | 9.7 | 0.00 | 2.97 | 2.29 | 93 | |
| 20260506172038 | 22 | 56 | 3.2 | 9.7 | 0.00 | 2.97 | 2.29 | 94 | |
| 20260506171017 | 21 | 291 | 3.2 | 8.0 | 0.00 | 2.97 | 2.29 | 92 | |
| 20260506170017 | 22 | 314 | 3.2 | 6.4 | 0.00 | 2.97 | 2.29 | 95 | |
| 20260506165017 | 21 | 38 | 3.2 | 9.7 | 0.00 | 2.97 | 2.29 | 94 | |
| 20260506164017 | 21 | 306 | 3.2 | 6.4 | 0.00 | 2.97 | 2.29 | 92 | |
| 20260506163017 | 21 | 344 | 3.2 | 6.4 | 0.03 | 2.97 | 2.29 | 94 | |
| 20260506162017 | 20 | 329 | 3.2 | 8.0 | 0.03 | 2.97 | 2.29 | 93 | |
| 20260506161016 | 20 | 326 | 4.8 | 8.0 | 0.03 | 2.97 | 2.29 | 94 | |
| 20260506160017 | 19 | 297 | 4.8 | 9.7 | 0.03 | 2.97 | 2.29 | 92 | |
| 20260506155016 | 19 | 334 | 3.2 | 9.7 | 0.03 | 2.97 | 2.29 | 89 | |
| 20260506154017 | 20 | 1 | 3.2 | 11.3 | 0.03 | 2.97 | 2.29 | 90 | |
| 20260506153017 | 20 | 14 | 3.2 | 6.4 | 0.00 | 2.95 | 2.26 | 91 | |
| 20260506152016 | 18 | 46 | 3.2 | 6.4 | 0.00 | 2.95 | 2.26 | 93 | |
| 20260506151018 | 18 | 303 | 4.8 | 12.9 | 0.00 | 2.95 | 2.26 | 92 | |
| 20260506150016 | 18 | 301 | 4.8 | 9.7 | 0.00 | 2.95 | 2.26 | 94 | |
| 20260506145017 | 17 | 102 | 3.2 | 4.8 | 0.00 | 2.95 | 2.26 | 95 | |
| 20260506144017 | 17 | 346 | 4.8 | 9.7 | 0.00 | 2.95 | 2.26 | 94 | |
| 20260506143016 | 17 | 328 | 4.8 | 12.9 | 0.00 | 2.95 | 2.26 | 97 | |
| 20260506142017 | 15 | 23 | 3.2 | 8.0 | 0.00 | 2.95 | 2.26 | 98 | |
| 20260506141016 | 15 | 325 | 1.6 | 4.8 | 0.00 | 2.95 | 2.26 | 98 | |
| 20260506140017 | 14 | 316 | 4.8 | 8.0 | 0.00 | 2.95 | 2.26 | 97 | |
| 20260506135017 | 14 | 325 | 3.2 | 8.0 | 0.00 | 2.95 | 2.26 | 97 | |
| 20260506134017 | 14 | 346 | 3.2 | 8.0 | 0.00 | 2.95 | 2.26 | 98 | |
| 20260506133017 | 13 | 298 | 4.8 | 11.3 | 0.00 | 2.95 | 2.26 | 97 | |
| 20260506132016 | 13 | 331 | 3.2 | 8.0 | 0.00 | 2.95 | 2.26 | 99 | |
| 20260506131017 | 12 | 296 | 3.2 | 6.4 | 0.00 | 2.95 | 2.26 | 98 | |
| 20260506130018 | 12 | 13 | 1.6 | 3.2 | 0.00 | 2.95 | 2.26 | 97 | |
| 20260506125016 | 12 | 308 | 3.2 | 8.0 | 0.00 | 2.95 | 2.26 | 97 | |
| 20260506124017 | 12 | 330 | 3.2 | 6.4 | 0.00 | 2.95 | 2.26 | 98 | |
| 20260506123016 | 12 | 293 | 3.2 | 4.8 | 0.00 | 2.95 | 2.26 | 98 | |
| 20260506122017 | 11 | 321 | 3.2 | 6.4 | 0.00 | 2.95 | 2.26 | 98 | |
| 20260506121017 | 11 | 306 | 3.2 | 6.4 | 0.00 | 2.95 | 2.26 | 97 | |
| 20260506120016 | 11 | 316 | 3.2 | 6.4 | 0.00 | 2.95 | 2.26 | 97 |